Molokai, HI

1:46 AM HST on July 21, 2017 (GMT -1000)
Molokai

Weather History for PHMK - January, 2013

Change the Weather History Date:

Monday, January 28, 2013

  Actual Average Record
Temperature  
Mean Temperature 70 °F -  
Max Temperature 73 °F 76 °F 82 °F (1978)
Min Temperature 66 °F 63 °F 52 °F (1983)
Cooling Degree Days 4    
Growing Degree Days 20 (Base 50)    
Moisture  
Dew Point 65 °F    
Average Humidity 83    
Maximum Humidity 96    
Minimum Humidity 73    
Precipitation  
Precipitation 0.91 in - - ()
Sea Level Pressure  
Sea Level Pressure 29.96 in    
Wind  
Wind Speed 6 mph (NNE)    
Max Wind Speed 13 mph    
Max Gust Speed 18 mph    
Visibility 9 miles    
Events Rain    
Averages and records for this station are not official NWS values.
T = Trace of Precipitation, MM = Missing Value Source: NWS Daily Summary

Daily Weather History Graph

Daily Weather History Graph

Search for Another Location

Airport or City:

Trip Planner

Search our weather history database for the weather conditions in past years. The results will help you decide how hot, cold, wet, or windy it might be!

Date:

Astronomy

Jan. 28, 2013 Rise Set
Actual Time 7:06 AM HST 6:16 PM HST
Civil Twilight 6:43 AM HST 6:39 PM HST
Nautical Twilight 6:16 AM HST 7:06 PM HST
Astronomical Twilight 5:49 AM HST 7:33 PM HST
Moon 7:59 PM HST (1/28) 7:57 AM HST (1/28)
Length of Visible Light 11h 56m
Length of Day
11h 10m
Full, 97% of the Moon is Illuminated
Jan 28
Full
Feb 3
Last Quarter
Feb 9
New
Feb 17
First Quarter
Feb 25
Full

Hourly Weather History & Observations

Time (HST) Temp. Dew Point Humidity Pressure Visibility Wind Dir Wind Speed Gust Speed Precip Events Conditions
12:54 AM - - N/A% 29.98 in 5.0 mi NNE 6.9 mph - 0.20 in Rain Rain
1:04 AM - - N/A% 29.97 in 10.0 mi NNE 5.8 mph - 0.01 in Rain Light Rain
1:39 AM - - N/A% 29.97 in 10.0 mi North 10.4 mph - 0.03 in Rain Light Rain
1:54 AM - - N/A% 29.97 in 10.0 mi NNE 5.8 mph - 0.03 in Rain Light Rain
2:10 AM - - N/A% 29.97 in 10.0 mi North 9.2 mph - N/A   Overcast
2:22 AM - - N/A% 29.97 in 10.0 mi North 8.1 mph - N/A   Overcast
2:50 AM - - N/A% 29.96 in 6.0 mi North 9.2 mph - 0.05 in Rain Heavy Rain
2:54 AM - - N/A% 29.96 in 5.0 mi North 10.4 mph - 0.06 in Rain Rain
3:05 AM - - N/A% 29.96 in 9.0 mi North 8.1 mph - 0.02 in Rain Light Rain
3:13 AM - - N/A% 29.97 in 10.0 mi NNW 5.8 mph - 0.02 in Rain Light Rain
3:28 AM - - N/A% 29.96 in 2.0 mi North 12.7 mph 18.4 mph 0.19 in Rain Heavy Rain
3:39 AM - - N/A% 29.96 in 5.0 mi North 10.4 mph - 0.28 in Rain Heavy Rain
3:54 AM - - N/A% 29.96 in 8.0 mi North 9.2 mph - 0.33 in Rain Rain
4:24 AM - - N/A% 29.95 in 10.0 mi North 8.1 mph - 0.05 in Rain Light Rain
4:49 AM - - N/A% 29.95 in 10.0 mi NNE 8.1 mph - 0.07 in Rain Light Rain
4:54 AM - - N/A% 29.95 in 10.0 mi NNE 6.9 mph - 0.07 in Rain Light Rain
5:02 AM - - N/A% 29.95 in 10.0 mi NNE 6.9 mph - 0.00 in Rain Light Rain
5:54 AM 66.2 °F 64.9 °F 96% 29.97 in 10.0 mi NNE 5.8 mph - 0.01 in Rain Light Rain
6:54 AM 66.2 °F 64.9 °F 96% 29.99 in 10.0 mi North 8.1 mph - 0.04 in Rain Light Rain
7:54 AM 66.2 °F 64.9 °F 96% 30.00 in 10.0 mi NE 5.8 mph - 0.01 in   Mostly Cloudy
8:01 AM 68.0 °F 64.4 °F 88% 29.99 in 8.0 mi NE 6.9 mph - 0.01 in Rain Light Rain
8:54 AM 68.0 °F 64.9 °F 90% 30.02 in 10.0 mi East 3.5 mph - 0.03 in Rain Light Rain
9:54 AM 68.0 °F 64.9 °F 90% 30.03 in 7.0 mi Calm Calm - 0.02 in Rain Light Rain
10:05 AM - - N/A% 30.02 in 6.0 mi Calm Calm - 0.01 in Rain Light Rain
10:54 AM - - N/A% 29.99 in 10.0 mi ESE 10.4 mph - 0.01 in   Overcast
11:54 AM 71.1 °F 66.0 °F 84% 29.98 in 10.0 mi SE 8.1 mph - N/A   Overcast
12:54 PM 69.8 °F 66.0 °F 88% 29.94 in 10.0 mi SE 9.2 mph - 0.00 in Rain Light Rain
1:54 PM 73.0 °F 66.0 °F 79% 29.91 in 10.0 mi Calm Calm - 0.01 in   Mostly Cloudy
2:54 PM 73.9 °F 64.9 °F 73% 29.91 in 10.0 mi Calm Calm - 0.00 in   Mostly Cloudy
3:06 PM 73.4 °F 64.4 °F 73% 29.91 in 10.0 mi South 3.5 mph - N/A   Mostly Cloudy
3:54 PM 73.9 °F 64.9 °F 73% 29.92 in 10.0 mi South 3.5 mph - N/A   Mostly Cloudy
4:01 PM 73.4 °F 64.4 °F 73% 29.92 in 10.0 mi SE 3.5 mph - N/A   Overcast
4:54 PM 73.0 °F 64.0 °F 73% 29.93 in 10.0 mi Calm Calm - 0.00 in   Overcast
5:10 PM 73.4 °F 64.4 °F 73% 29.93 in 10.0 mi Calm Calm - N/A   Mostly Cloudy
5:54 PM 72.0 °F 66.9 °F 84% 29.95 in 8.0 mi NNE 3.5 mph - N/A   Scattered Clouds
6:54 PM - - N/A% 29.95 in 10.0 mi Calm Calm - 0.00 in Rain Light Rain
7:07 PM - - N/A% 29.96 in 10.0 mi Calm Calm - 0.00 in   Mostly Cloudy
7:54 PM - - N/A% 29.97 in 8.0 mi North 3.5 mph - 0.00 in   Mostly Cloudy
8:02 PM - - N/A% 29.97 in 9.0 mi North 3.5 mph - N/A   Overcast
8:14 PM - - N/A% 29.98 in 6.0 mi SW 3.5 mph - 0.00 in Rain Rain
8:54 PM - - N/A% 29.98 in 10.0 mi Calm Calm - 0.09 in   Overcast
9:54 PM - - N/A% 29.97 in 8.0 mi Calm Calm - N/A   Partly Cloudy
10:54 PM - - N/A% 29.98 in 7.0 mi NW 3.5 mph - N/A   Clear
11:54 PM - - N/A% 29.97 in 8.0 mi Calm Calm - N/A   Mostly Cloudy